Baudette, MN

4:51 AM CDT on July 22, 2017 (GMT -0500)
Baudette International

Weather History for KBDE - January, 2014

Change the Weather History Date:

Sunday, January 19, 2014

  Actual Average Record
Temperature  
Mean Temperature 14 °F -  
Max Temperature 28 °F 17 °F 39 °F (1942)
Min Temperature 0 °F -6 °F -41 °F (1970)
Degree Days  
Heating Degree Days 50    
Moisture  
Dew Point 12 °F    
Average Humidity 80    
Maximum Humidity 88    
Minimum Humidity 73    
Precipitation  
Precipitation 0.00 in - - ()
Sea Level Pressure  
Sea Level Pressure 29.57 in    
Wind  
Wind Speed 10 mph (North)    
Max Wind Speed 16 mph    
Max Gust Speed -    
Visibility 9 miles    
Events Snow    
Averages and records for this station are not official NWS values.
T = Trace of Precipitation, MM = Missing Value Source: NWS Daily Summary

Daily Weather History Graph

Daily Weather History Graph

Search for Another Location

Airport or City:

Trip Planner

Search our weather history database for the weather conditions in past years. The results will help you decide how hot, cold, wet, or windy it might be!

Date:

Astronomy

Jan. 19, 2014 Rise Set
Actual Time 8:02 AM CST 4:56 PM CST
Civil Twilight 7:27 AM CST 5:31 PM CST
Nautical Twilight 6:48 AM CST 6:10 PM CST
Astronomical Twilight 6:11 AM CST 6:47 PM CST
Moon 8:57 PM CST (1/19) 9:13 AM CST (1/19)
Length of Visible Light 10h 03m
Length of Day
8h 53m
Waning Gibbous, 89% of the Moon is Illuminated
Jan 19
Waning Gibbous
Jan 23
Last Quarter
Jan 30
New
Feb 6
First Quarter
Feb 14
Full

Hourly Weather History & Observations

Time (CST) Temp. Windchill Dew Point Humidity Pressure Visibility Wind Dir Wind Speed Gust Speed Precip Events Conditions
12:53 AM 27.0 °F 18.7 °F 23.0 °F 85% 29.42 in 10.0 mi West 8.1 mph - N/A   Overcast
1:53 AM 26.1 °F 18.4 °F 23.0 °F 88% 29.42 in 10.0 mi West 6.9 mph - N/A   Scattered Clouds
2:53 AM 28.0 °F 19.3 °F 24.1 °F 85% 29.45 in 10.0 mi WNW 9.2 mph - N/A   Mostly Cloudy
3:27 AM 28.0 °F 16.1 °F 23.0 °F 81% 29.40 in 10.0 mi NW 16.1 mph - N/A   Overcast
3:53 AM 27.0 °F 16.1 °F 23.0 °F 85% 29.46 in 10.0 mi NNW 12.7 mph - N/A   Overcast
4:43 AM 25.0 °F 15.5 °F 21.0 °F 85% 29.42 in 10.0 mi NNW 9.2 mph - N/A   Overcast
4:53 AM 25.0 °F 15.5 °F 21.0 °F 85% 29.49 in 10.0 mi NW 9.2 mph - N/A   Overcast
5:39 AM 24.1 °F 14.4 °F 21.0 °F 88% 29.44 in 10.0 mi North 9.2 mph - N/A   Overcast
5:53 AM 24.1 °F 13.1 °F 19.9 °F 84% 29.50 in 10.0 mi NNW 11.5 mph - N/A   Overcast
6:09 AM 24.1 °F 13.7 °F 19.9 °F 84% 29.44 in 10.0 mi NNW 10.4 mph - N/A   Overcast
6:53 AM 23.0 °F 11.1 °F 19.0 °F 85% 29.53 in 10.0 mi NW 12.7 mph - N/A   Overcast
7:29 AM 21.9 °F 11.7 °F 18.0 °F 85% 29.47 in 10.0 mi North 9.2 mph - N/A   Overcast
7:49 AM 21.2 °F 10.9 °F 15.8 °F 80% 29.48 in 10.0 mi North 9.2 mph - N/A   Overcast
7:53 AM 21.0 °F 10.6 °F 16.0 °F 81% 29.54 in 10.0 mi North 9.2 mph - N/A   Overcast
8:53 AM 18.0 °F 9.8 °F 12.9 °F 81% 29.55 in 10.0 mi NNE 5.8 mph - N/A   Mostly Cloudy
9:29 AM 19.0 °F 7.5 °F 12.0 °F 74% 29.47 in 10.0 mi NNE 10.4 mph - N/A   Partly Cloudy
9:53 AM 18.0 °F 7.7 °F 10.9 °F 74% 29.55 in 10.0 mi NNE 8.1 mph - N/A   Scattered Clouds
10:03 AM 18.0 °F 6.9 °F 12.0 °F 78% 29.50 in 10.0 mi North 9.2 mph - N/A   Mostly Cloudy
10:53 AM 17.1 °F 6.6 °F 10.0 °F 74% 29.56 in 10.0 mi North 8.1 mph - N/A   Overcast
11:31 AM 17.1 °F 4.3 °F 10.9 °F 77% 29.50 in 10.0 mi North 11.5 mph - N/A   Overcast
11:53 AM 17.1 °F 5.0 °F 10.0 °F 74% 29.57 in 10.0 mi North 10.4 mph - N/A   Overcast
12:53 PM 16.0 °F 3.6 °F 9.0 °F 74% 29.57 in 10.0 mi North 10.4 mph - N/A   Overcast
1:53 PM 14.0 °F 0.5 °F 7.0 °F 74% 29.60 in 10.0 mi North 11.5 mph - N/A   Overcast
2:53 PM 12.9 °F -0.2 °F 6.1 °F 74% 29.64 in 10.0 mi North 10.4 mph - N/A   Overcast
3:53 PM 10.9 °F 0.2 °F 5.0 °F 77% 29.66 in 9.0 mi NE 6.9 mph - 0.00 in Snow Light Snow
4:53 PM 10.0 °F -2.9 °F 3.9 °F 76% 29.70 in 5.0 mi North 9.2 mph - 0.00 in Snow Light Snow
5:53 PM 8.1 °F -5.3 °F 3.9 °F 83% 29.72 in 5.0 mi NNE 9.2 mph - 0.00 in Snow Light Snow
6:53 PM 7.0 °F -4.5 °F 1.9 °F 80% 29.75 in 7.0 mi NNE 6.9 mph - 0.00 in Snow Light Snow
7:53 PM 5.0 °F -9.1 °F -0.9 °F 76% 29.76 in 10.0 mi NE 9.2 mph - 0.00 in   Overcast
8:53 PM 3.9 °F -8.2 °F -2.9 °F 73% 29.79 in 8.0 mi NNE 6.9 mph - 0.00 in Snow Light Snow
9:53 PM 1.9 °F -14.7 °F -2.9 °F 80% 29.83 in 6.0 mi North 11.5 mph - 0.00 in Snow Light Snow
10:53 PM 1.0 °F -14.0 °F -4.0 °F 79% 29.86 in 4.0 mi North 9.2 mph - 0.00 in Snow Light Snow
11:53 PM -0.0 °F -15.3 °F -5.1 °F 79% 29.90 in 9.0 mi North 9.2 mph - 0.00 in   Overcast